Time,TemperatureF,DewpointF,PressureIn,WindDirection,WindDirectionDegrees,WindSpeedMPH,WindSpeedGustMPH,Humidity,HourlyPrecipIn,Conditions,Clouds,dailyrainin,SoftwareType,DateUTC
2013-04-23 00:00:00,67.9,63.9,30.10,SE,124,12.0,20.0,87,0.00,,,0.00,Wunderground v.1.15,2013-04-23 04:00:00,
2013-04-23 00:05:00,67.9,63.9,30.10,ESE,118,13.0,20.0,87,0.00,,,0.00,Wunderground v.1.15,2013-04-23 04:05:00,
2013-04-23 00:10:00,67.9,63.9,30.10,SE,127,13.0,20.0,87,0.00,,,0.00,Wunderground v.1.15,2013-04-23 04:10:00,
2013-04-23 00:15:00,67.8,63.8,30.10,East,88,12.0,20.0,87,0.00,,,0.00,Wunderground v.1.15,2013-04-23 04:15:00,
2013-04-23 00:20:00,67.9,63.9,30.10,ESE,107,12.0,12.0,87,0.00,,,0.00,Wunderground v.1.15,2013-04-23 04:20:00,
2013-04-23 00:30:00,67.9,63.9,30.10,ESE,107,11.0,11.0,87,0.00,,,0.00,Wunderground v.1.15,2013-04-23 04:30:00,
2013-04-23 00:35:00,67.9,63.6,30.09,ESE,103,11.0,14.0,86,0.00,,,0.00,Wunderground v.1.15,2013-04-23 04:35:00,
2013-04-23 00:40:00,68.0,63.7,30.09,ESE,113,12.0,20.0,86,0.00,,,0.00,Wunderground v.1.15,2013-04-23 04:40:00,
2013-04-23 00:50:00,67.9,63.6,30.09,East,94,10.0,20.0,86,0.00,,,0.00,Wunderground v.1.15,2013-04-23 04:50:00,
2013-04-23 00:55:00,67.9,63.6,30.09,East,101,10.0,20.0,86,0.00,,,0.00,Wunderground v.1.15,2013-04-23 04:55:00,
2013-04-23 01:05:00,67.7,63.7,30.09,ESE,113,9.0,20.0,87,0.00,,,0.00,Wunderground v.1.15,2013-04-23 05:05:00,
2013-04-23 01:10:00,67.7,63.7,30.09,SE,124,9.0,20.0,87,0.00,,,0.00,Wunderground v.1.15,2013-04-23 05:10:00,
2013-04-23 01:20:00,67.5,63.5,30.09,ESE,105,9.0,9.0,87,0.00,,,0.00,Wunderground v.1.15,2013-04-23 05:20:00,
2013-04-23 01:25:00,67.7,63.4,30.09,ESE,114,10.0,10.0,86,0.00,,,0.00,Wunderground v.1.15,2013-04-23 05:25:00,
2013-04-23 01:30:00,67.9,63.6,30.08,ESE,107,12.0,20.0,86,0.00,,,0.00,Wunderground v.1.15,2013-04-23 05:30:00,
2013-04-23 01:35:00,67.9,63.6,30.08,ESE,113,12.0,20.0,86,0.00,,,0.00,Wunderground v.1.15,2013-04-23 05:35:00,
2013-04-23 01:40:00,67.9,63.6,30.08,SE,125,12.0,20.0,86,0.00,,,0.00,Wunderground v.1.15,2013-04-23 05:40:00,
2013-04-23 01:50:00,67.9,63.6,30.08,ESE,119,13.0,13.0,86,0.00,,,0.00,Wunderground v.1.15,2013-04-23 05:50:00,
2013-04-23 01:55:00,67.9,63.6,30.08,ESE,111,14.0,14.0,86,0.00,,,0.00,Wunderground v.1.15,2013-04-23 05:55:00,
2013-04-23 02:05:00,67.8,63.8,30.07,ESE,121,13.0,20.0,87,0.00,,,0.00,Wunderground v.1.15,2013-04-23 06:05:00,
2013-04-23 02:10:00,67.8,63.8,30.07,ESE,107,13.0,20.0,87,0.00,,,0.00,Wunderground v.1.15,2013-04-23 06:10:00,
2013-04-23 02:20:00,67.8,64.1,30.07,ESE,115,13.0,20.0,88,0.00,,,0.00,Wunderground v.1.15,2013-04-23 06:20:00,
2013-04-23 02:25:00,67.9,64.2,30.07,ESE,113,14.0,20.0,88,0.00,,,0.00,Wunderground v.1.15,2013-04-23 06:25:00,
2013-04-23 02:35:00,68.2,64.5,30.07,ESE,118,17.0,20.0,88,0.00,,,0.00,Wunderground v.1.15,2013-04-23 06:35:00,
2013-04-23 02:40:00,68.3,64.9,30.06,SSE,151,18.0,18.0,89,0.00,,,0.00,Wunderground v.1.15,2013-04-23 06:40:00,
2013-04-23 02:45:00,68.1,64.7,30.07,SSE,147,18.0,20.0,89,0.00,,,0.00,Wunderground v.1.15,2013-04-23 06:45:00,
2013-04-23 02:50:00,68.0,64.6,30.06,SE,132,17.0,20.0,89,0.00,,,0.00,Wunderground v.1.15,2013-04-23 06:50:00,
2013-04-23 03:00:00,67.9,64.5,30.06,SE,139,16.0,20.0,89,0.00,,,0.00,Wunderground v.1.15,2013-04-23 07:00:00,
2013-04-23 03:05:00,67.8,64.4,30.06,SE,134,16.0,20.0,89,0.00,,,0.00,Wunderground v.1.15,2013-04-23 07:05:00,
2013-04-23 03:15:00,67.8,64.4,30.06,SE,135,14.0,20.0,89,0.00,,,0.00,Wunderground v.1.15,2013-04-23 07:15:00,
2013-04-23 03:20:00,67.8,64.4,30.05,SE,136,14.0,14.0,89,0.00,,,0.00,Wunderground v.1.15,2013-04-23 07:20:00,
2013-04-23 03:25:00,67.9,64.2,30.06,SSE,149,14.0,17.0,88,0.00,,,0.00,Wunderground v.1.15,2013-04-23 07:25:00,
2013-04-23 03:35:00,67.9,64.5,30.05,SSE,167,14.0,20.0,89,0.00,,,0.00,Wunderground v.1.15,2013-04-23 07:35:00,
2013-04-23 03:40:00,67.9,64.5,30.05,SE,126,15.0,20.0,89,0.00,,,0.00,Wunderground v.1.15,2013-04-23 07:40:00,
2013-04-23 03:50:00,67.7,64.7,30.05,SE,137,14.0,14.0,90,0.00,,,0.00,Wunderground v.1.15,2013-04-23 07:50:00,
2013-04-23 03:55:00,67.8,64.8,30.05,SE,136,15.0,15.0,90,0.00,,,0.00,Wunderground v.1.15,2013-04-23 07:55:00,
2013-04-23 04:00:00,67.7,64.7,30.05,SE,129,15.0,20.0,90,0.00,,,0.00,Wunderground v.1.15,2013-04-23 08:00:00,
2013-04-23 04:05:00,67.7,64.7,30.06,SE,125,14.0,20.0,90,0.00,,,0.00,Wunderground v.1.15,2013-04-23 08:05:00,
2013-04-23 04:15:00,67.7,64.7,30.06,ESE,115,12.0,20.0,90,0.00,,,0.00,Wunderground v.1.15,2013-04-23 08:15:00,
2013-04-23 04:20:00,67.7,64.7,30.06,SSE,151,12.0,20.0,90,0.00,,,0.00,Wunderground v.1.15,2013-04-23 08:20:00,
2013-04-23 04:25:00,67.7,65.0,30.06,ESE,112,13.0,20.0,91,0.00,,,0.00,Wunderground v.1.15,2013-04-23 08:25:00,
2013-04-23 04:35:00,67.9,64.9,30.06,SE,130,16.0,20.0,90,0.00,,,0.00,Wunderground v.1.15,2013-04-23 08:35:00,
2013-04-23 04:40:00,67.9,64.9,30.06,SE,138,15.0,15.0,90,0.00,,,0.00,Wunderground v.1.15,2013-04-23 08:40:00,
2013-04-23 04:50:00,67.8,64.8,30.06,ESE,119,12.0,12.0,90,0.00,,,0.00,Wunderground v.1.15,2013-04-23 08:50:00,
2013-04-23 04:55:00,67.8,65.1,30.06,SE,126,12.0,20.0,91,0.00,,,0.00,Wunderground v.1.15,2013-04-23 08:55:00,
2013-04-23 05:05:00,67.9,64.9,30.06,SE,132,15.0,20.0,90,0.00,,,0.00,Wunderground v.1.15,2013-04-23 09:05:00,
2013-04-23 05:10:00,67.9,65.2,30.06,SE,140,15.0,15.0,91,0.00,,,0.00,Wunderground v.1.15,2013-04-23 09:10:00,
2013-04-23 05:15:00,67.9,64.9,30.06,ESE,120,13.0,20.0,90,0.00,,,0.00,Wunderground v.1.15,2013-04-23 09:15:00,
2013-04-23 05:25:00,68.0,65.0,30.06,ESE,119,16.0,20.0,90,0.00,,,0.00,Wunderground v.1.15,2013-04-23 09:25:00,
2013-04-23 05:30:00,68.0,64.6,30.06,ESE,123,16.0,20.0,89,0.00,,,0.00,Wunderground v.1.15,2013-04-23 09:30:00,
2013-04-23 05:40:00,68.0,64.6,30.06,SE,132,15.0,15.0,89,0.00,,,0.00,Wunderground v.1.15,2013-04-23 09:40:00,
2013-04-23 05:45:00,67.9,64.5,30.06,SE,128,14.0,20.0,89,0.00,,,0.00,Wunderground v.1.15,2013-04-23 09:45:00,
2013-04-23 05:50:00,67.9,64.5,30.06,SE,129,15.0,15.0,89,0.00,,,0.00,Wunderground v.1.15,2013-04-23 09:50:00,
2013-04-23 05:55:00,68.0,64.6,30.06,ESE,107,15.0,20.0,89,0.00,,,0.00,Wunderground v.1.15,2013-04-23 09:55:00,
2013-04-23 06:05:00,68.0,64.6,30.06,ESE,119,15.0,21.0,89,0.00,,,0.00,Wunderground v.1.15,2013-04-23 10:05:00,
2013-04-23 06:10:00,68.1,64.7,30.06,SE,126,17.0,17.0,89,0.00,,,0.00,Wunderground v.1.15,2013-04-23 10:10:00,
2013-04-23 06:20:00,68.0,64.3,30.06,SE,127,16.0,16.0,88,0.00,,,0.00,Wunderground v.1.15,2013-04-23 10:20:00,
2013-04-23 06:25:00,68.0,64.3,30.06,SE,132,18.0,18.0,88,0.00,,,0.00,Wunderground v.1.15,2013-04-23 10:25:00,
2013-04-23 06:35:00,68.1,64.4,30.06,SE,126,18.0,21.0,88,0.00,,,0.00,Wunderground v.1.15,2013-04-23 10:35:00,
2013-04-23 06:40:00,68.1,64.4,30.06,SE,137,18.0,18.0,88,0.00,,,0.00,Wunderground v.1.15,2013-04-23 10:40:00,
2013-04-23 06:45:00,68.0,64.3,30.06,ESE,122,16.0,20.0,88,0.00,,,0.00,Wunderground v.1.15,2013-04-23 10:45:00,
2013-04-23 06:55:00,68.0,64.6,30.06,SE,127,16.0,20.0,89,0.00,,,0.00,Wunderground v.1.15,2013-04-23 10:55:00,
2013-04-23 07:00:00,68.0,64.6,30.06,ESE,121,16.0,20.0,89,0.00,,,0.00,Wunderground v.1.15,2013-04-23 11:00:00,
2013-04-23 07:05:00,68.0,64.6,30.07,ESE,113,16.0,20.0,89,0.00,,,0.00,Wunderground v.1.15,2013-04-23 11:05:00,
2013-04-23 07:10:00,67.9,64.9,30.07,SE,128,14.0,14.0,90,0.00,,,0.00,Wunderground v.1.15,2013-04-23 11:10:00,
2013-04-23 07:20:00,68.0,64.6,30.07,SE,132,15.0,20.0,89,0.00,,,0.00,Wunderground v.1.15,2013-04-23 11:20:00,
2013-04-23 07:25:00,68.1,64.7,30.07,SE,125,16.0,20.0,89,0.00,,,0.00,Wunderground v.1.15,2013-04-23 11:25:00,
2013-04-23 07:35:00,68.1,64.7,30.08,SE,142,15.0,20.0,89,0.00,,,0.00,Wunderground v.1.15,2013-04-23 11:35:00,
2013-04-23 07:45:00,68.1,64.7,30.08,SE,125,13.0,20.0,89,0.00,,,0.00,Wunderground v.1.15,2013-04-23 11:45:00,
2013-04-23 07:50:00,68.2,64.8,30.08,ESE,115,14.0,20.0,89,0.00,,,0.00,Wunderground v.1.15,2013-04-23 11:50:00,
2013-04-23 07:55:00,68.5,64.8,30.08,SE,129,16.0,20.0,88,0.00,,,0.00,Wunderground v.1.15,2013-04-23 11:55:00,
2013-04-23 08:00:00,68.6,64.9,30.08,SE,125,17.0,17.0,88,0.00,,,0.00,Wunderground v.1.15,2013-04-23 12:00:00,
2013-04-23 08:10:00,68.7,65.0,30.08,SE,124,15.0,15.0,88,0.00,,,0.00,Wunderground v.1.15,2013-04-23 12:10:00,
2013-04-23 08:15:00,68.7,65.0,30.08,ESE,119,13.0,20.0,88,0.00,,,0.00,Wunderground v.1.15,2013-04-23 12:15:00,
2013-04-23 08:20:00,68.8,65.4,30.08,SE,128,13.0,20.0,89,0.00,,,0.00,Wunderground v.1.15,2013-04-23 12:20:00,
2013-04-23 08:30:00,69.0,65.3,30.08,ESE,117,16.0,16.0,88,0.00,,,0.00,Wunderground v.1.15,2013-04-23 12:30:00,
2013-04-23 08:35:00,68.9,65.2,30.08,SE,129,16.0,20.0,88,0.00,,,0.00,Wunderground v.1.15,2013-04-23 12:35:00,
2013-04-23 08:40:00,68.9,65.2,30.09,SE,126,15.0,15.0,88,0.00,,,0.00,Wunderground v.1.15,2013-04-23 12:40:00,
2013-04-23 08:50:00,69.2,65.5,30.09,SE,125,16.0,20.0,88,0.00,,,0.00,Wunderground v.1.15,2013-04-23 12:50:00,
2013-04-23 08:55:00,69.3,65.6,30.09,SE,132,16.0,20.0,88,0.00,,,0.00,Wunderground v.1.15,2013-04-23 12:55:00,
2013-04-23 09:05:00,69.3,65.3,30.09,SE,131,18.0,20.0,87,0.00,,,0.00,Wunderground v.1.15,2013-04-23 13:05:00,
2013-04-23 09:10:00,69.2,65.2,30.09,ESE,115,18.0,20.0,87,0.00,,,0.00,Wunderground v.1.15,2013-04-23 13:10:00,
2013-04-23 09:20:00,69.5,65.5,30.09,SE,124,17.0,17.0,87,0.00,,,0.00,Wunderground v.1.15,2013-04-23 13:20:00,
2013-04-23 09:25:00,69.5,65.5,30.09,ESE,115,17.0,18.0,87,0.00,,,0.00,Wunderground v.1.15,2013-04-23 13:25:00,
2013-04-23 09:35:00,69.6,65.2,30.10,SE,126,18.0,20.0,86,0.00,,,0.00,Wunderground v.1.15,2013-04-23 13:35:00,
2013-04-23 09:40:00,69.7,65.0,30.10,SE,127,19.0,19.0,85,0.00,,,0.00,Wunderground v.1.15,2013-04-23 13:40:00,
2013-04-23 09:45:00,69.8,65.1,30.10,SE,136,19.0,20.0,85,0.00,,,0.00,Wunderground v.1.15,2013-04-23 13:45:00,
2013-04-23 09:50:00,69.8,65.4,30.10,SE,126,19.0,19.0,86,0.00,,,0.00,Wunderground v.1.15,2013-04-23 13:50:00,
2013-04-23 09:55:00,69.8,65.4,30.10,ESE,122,18.0,20.0,86,0.00,,,0.00,Wunderground v.1.15,2013-04-23 13:55:00,
2013-04-23 10:05:00,69.5,65.5,30.10,ESE,123,17.0,20.0,87,0.00,,,0.00,Wunderground v.1.15,2013-04-23 14:05:00,
2013-04-23 10:15:00,69.9,65.9,30.11,ESE,123,16.0,20.0,87,0.00,,,0.00,Wunderground v.1.15,2013-04-23 14:15:00,
2013-04-23 10:20:00,70.1,66.0,30.11,ESE,116,16.0,20.0,87,0.00,,,0.00,Wunderground v.1.15,2013-04-23 14:20:00,
2013-04-23 10:25:00,70.1,65.7,30.11,SE,125,16.0,20.0,86,0.00,,,0.00,Wunderground v.1.15,2013-04-23 14:25:00,
2013-04-23 10:35:00,69.7,65.7,30.11,SE,126,16.0,20.0,87,0.00,,,0.00,Wunderground v.1.15,2013-04-23 14:35:00,
2013-04-23 10:40:00,69.8,66.1,30.11,ESE,121,15.0,20.0,88,0.00,,,0.00,Wunderground v.1.15,2013-04-23 14:40:00,
2013-04-23 10:50:00,69.4,66.0,30.12,ESE,115,17.0,17.0,89,0.00,,,0.00,Wunderground v.1.15,2013-04-23 14:50:00,
2013-04-23 11:00:00,69.2,65.8,30.12,SE,136,14.0,20.0,89,0.00,,,0.00,Wunderground v.1.15,2013-04-23 15:00:00,
2013-04-23 11:05:00,69.2,65.8,30.12,SE,125,16.0,20.0,89,0.00,,,0.00,Wunderground v.1.15,2013-04-23 15:05:00,
2013-04-23 11:10:00,69.4,66.0,30.12,SE,125,19.0,20.0,89,0.00,,,0.00,Wunderground v.1.15,2013-04-23 15:10:00,
2013-04-23 11:20:00,70.2,66.5,30.12,ESE,120,19.0,19.0,88,0.00,,,0.00,Wunderground v.1.15,2013-04-23 15:20:00,
2013-04-23 11:25:00,70.3,66.2,30.12,ESE,123,19.0,20.0,87,0.00,,,0.00,Wunderground v.1.15,2013-04-23 15:25:00,
2013-04-23 11:35:00,70.4,66.7,30.12,ESE,121,17.0,20.0,88,0.00,,,0.00,Wunderground v.1.15,2013-04-23 15:35:00,
2013-04-23 11:40:00,70.5,66.1,30.12,SE,135,16.0,20.0,86,0.00,,,0.00,Wunderground v.1.15,2013-04-23 15:40:00,
2013-04-23 11:50:00,70.3,66.2,30.12,SE,132,18.0,20.0,87,0.00,,,0.00,Wunderground v.1.15,2013-04-23 15:50:00,
2013-04-23 11:55:00,70.6,66.5,30.12,SE,126,18.0,20.0,87,0.00,,,0.00,Wunderground v.1.15,2013-04-23 15:55:00,
2013-04-23 12:05:00,70.3,65.9,30.12,SE,129,19.0,22.0,86,0.00,,,0.00,Wunderground v.1.15,2013-04-23 16:05:00,
2013-04-23 12:15:00,70.5,66.1,30.12,ESE,112,19.0,20.0,86,0.00,,,0.00,Wunderground v.1.15,2013-04-23 16:15:00,
2013-04-23 12:20:00,70.5,66.4,30.12,ESE,112,19.0,19.0,87,0.00,,,0.00,Wunderground v.1.15,2013-04-23 16:20:00,
2013-04-23 12:30:00,70.5,66.8,30.12,SE,128,19.0,19.0,88,0.00,,,0.00,Wunderground v.1.15,2013-04-23 16:30:00,
2013-04-23 12:35:00,71.0,66.3,30.12,ESE,117,18.0,23.0,85,0.00,,,0.00,Wunderground v.1.15,2013-04-23 16:35:00,
2013-04-23 12:45:00,70.1,66.0,30.12,ESE,107,20.0,20.0,87,0.00,,,0.00,Wunderground v.1.15,2013-04-23 16:45:00,
2013-04-23 12:50:00,70.1,66.0,30.11,SE,128,19.0,22.0,87,0.00,,,0.00,Wunderground v.1.15,2013-04-23 16:50:00,
2013-04-23 12:55:00,70.6,66.2,30.11,ESE,111,19.0,22.0,86,0.00,,,0.00,Wunderground v.1.15,2013-04-23 16:55:00,
2013-04-23 13:05:00,70.4,66.3,30.12,ESE,117,20.0,23.0,87,0.00,,,0.00,Wunderground v.1.15,2013-04-23 17:05:00,
2013-04-23 13:10:00,70.5,66.1,30.11,SE,127,19.0,22.0,86,0.00,,,0.00,Wunderground v.1.15,2013-04-23 17:10:00,
2013-04-23 13:15:00,70.4,66.3,30.11,SE,131,19.0,22.0,87,0.00,,,0.00,Wunderground v.1.15,2013-04-23 17:15:00,
2013-04-23 13:20:00,70.3,66.2,30.11,ESE,103,20.0,20.0,87,0.00,,,0.00,Wunderground v.1.15,2013-04-23 17:20:00,
2013-04-23 13:30:00,70.3,66.2,30.11,ESE,121,19.0,19.0,87,0.00,,,0.00,Wunderground v.1.15,2013-04-23 17:30:00,
2013-04-23 13:35:00,70.4,66.0,30.11,SE,126,19.0,22.0,86,0.00,,,0.00,Wunderground v.1.15,2013-04-23 17:35:00,
2013-04-23 13:40:00,70.3,65.9,30.11,SE,145,19.0,20.0,86,0.00,,,0.00,Wunderground v.1.15,2013-04-23 17:40:00,
2013-04-23 13:50:00,70.1,65.7,30.10,ESE,117,20.0,21.0,86,0.00,,,0.00,Wunderground v.1.15,2013-04-23 17:50:00,
2013-04-23 14:00:00,70.3,66.2,30.10,ESE,112,19.0,19.0,87,0.00,,,0.00,Wunderground v.1.15,2013-04-23 18:00:00,
2013-04-23 14:05:00,70.3,66.2,30.10,SE,134,19.0,21.0,87,0.00,,,0.00,Wunderground v.1.15,2013-04-23 18:05:00,
2013-04-23 14:10:00,70.4,66.0,30.10,ESE,117,19.0,23.0,86,0.00,,,0.00,Wunderground v.1.15,2013-04-23 18:10:00,
2013-04-23 14:20:00,70.4,66.0,30.09,SE,137,20.0,21.0,86,0.00,,,0.00,Wunderground v.1.15,2013-04-23 18:20:00,
2013-04-23 14:25:00,70.3,66.2,30.09,SE,128,19.0,21.0,87,0.00,,,0.00,Wunderground v.1.15,2013-04-23 18:25:00,
2013-04-23 14:30:00,70.2,65.8,30.09,SE,126,19.0,20.0,86,0.00,,,0.00,Wunderground v.1.15,2013-04-23 18:30:00,
2013-04-23 14:35:00,70.3,65.9,30.10,SE,137,20.0,24.0,86,0.00,,,0.00,Wunderground v.1.15,2013-04-23 18:35:00,
2013-04-23 14:45:00,70.5,66.1,30.10,ESE,103,20.0,20.0,86,0.00,,,0.00,Wunderground v.1.15,2013-04-23 18:45:00,
2013-04-23 14:50:00,70.4,66.3,30.10,SE,132,19.0,20.0,87,0.00,,,0.00,Wunderground v.1.15,2013-04-23 18:50:00,
2013-04-23 14:55:00,70.4,66.0,30.10,SE,135,20.0,21.0,86,0.00,,,0.00,Wunderground v.1.15,2013-04-23 18:55:00,
2013-04-23 15:05:00,70.1,65.7,30.09,SE,136,21.0,21.0,86,0.00,,,0.00,Wunderground v.1.15,2013-04-23 19:05:00,
2013-04-23 15:10:00,70.4,66.3,30.09,SE,129,20.0,23.0,87,0.00,,,0.00,Wunderground v.1.15,2013-04-23 19:10:00,
2013-04-23 15:20:00,70.3,66.2,30.09,SE,132,20.0,20.0,87,0.00,,,0.00,Wunderground v.1.15,2013-04-23 19:20:00,
2013-04-23 15:25:00,70.3,65.9,30.09,SE,134,20.0,20.0,86,0.00,,,0.00,Wunderground v.1.15,2013-04-23 19:25:00,
2013-04-23 15:35:00,70.5,66.1,30.09,SE,135,19.0,23.0,86,0.00,,,0.00,Wunderground v.1.15,2013-04-23 19:35:00,
2013-04-23 15:40:00,70.7,66.3,30.09,SE,129,19.0,21.0,86,0.00,,,0.00,Wunderground v.1.15,2013-04-23 19:40:00,
2013-04-23 15:45:00,70.4,66.0,30.09,ESE,121,20.0,21.0,86,0.00,,,0.00,Wunderground v.1.15,2013-04-23 19:45:00,
2013-04-23 15:50:00,70.3,65.9,30.09,SE,130,20.0,21.0,86,0.00,,,0.00,Wunderground v.1.15,2013-04-23 19:50:00,
2013-04-23 16:00:00,70.6,65.9,30.08,SE,139,19.0,22.0,85,0.00,,,0.00,Wunderground v.1.15,2013-04-23 20:00:00,
2013-04-23 16:05:00,70.4,66.0,30.08,SE,128,19.0,22.0,86,0.00,,,0.00,Wunderground v.1.15,2013-04-23 20:05:00,
2013-04-23 16:10:00,70.3,65.9,30.08,SE,136,19.0,21.0,86,0.00,,,0.00,Wunderground v.1.15,2013-04-23 20:10:00,
2013-04-23 16:20:00,70.2,65.8,30.08,ESE,119,19.0,19.0,86,0.00,,,0.00,Wunderground v.1.15,2013-04-23 20:20:00,
2013-04-23 16:25:00,70.1,65.7,30.08,SE,132,19.0,20.0,86,0.00,,,0.00,Wunderground v.1.15,2013-04-23 20:25:00,
2013-04-23 16:35:00,70.2,65.5,30.07,ESE,108,19.0,20.0,85,0.00,,,0.00,Wunderground v.1.15,2013-04-23 20:35:00,
2013-04-23 16:40:00,70.3,65.6,30.07,ESE,115,19.0,19.0,85,0.00,,,0.00,Wunderground v.1.15,2013-04-23 20:40:00,
2013-04-23 16:50:00,70.3,65.6,30.07,ESE,115,18.0,20.0,85,0.00,,,0.00,Wunderground v.1.15,2013-04-23 20:50:00,
2013-04-23 16:55:00,70.6,65.5,30.07,ESE,115,18.0,21.0,84,0.00,,,0.00,Wunderground v.1.15,2013-04-23 20:55:00,
2013-04-23 17:00:00,70.1,65.4,30.07,ESE,114,18.0,18.0,85,0.00,,,0.00,Wunderground v.1.15,2013-04-23 21:00:00,
2013-04-23 17:05:00,70.2,65.5,30.07,SE,128,17.0,19.0,85,0.00,,,0.00,Wunderground v.1.15,2013-04-23 21:05:00,
2013-04-23 17:15:00,70.0,65.3,30.07,ESE,117,17.0,20.0,85,0.00,,,0.00,Wunderground v.1.15,2013-04-23 21:15:00,
2013-04-23 17:20:00,69.9,65.5,30.07,ESE,123,17.0,20.0,86,0.00,,,0.00,Wunderground v.1.15,2013-04-23 21:20:00,
2013-04-23 17:25:00,69.8,65.4,30.07,ESE,123,17.0,20.0,86,0.00,,,0.00,Wunderground v.1.15,2013-04-23 21:25:00,
2013-04-23 17:35:00,69.8,65.4,30.06,ESE,122,17.0,20.0,86,0.00,,,0.00,Wunderground v.1.15,2013-04-23 21:35:00,
2013-04-23 17:45:00,70.2,66.1,30.06,SE,133,17.0,20.0,87,0.00,,,0.00,Wunderground v.1.15,2013-04-23 21:45:00,
2013-04-23 17:50:00,70.0,65.6,30.06,ESE,119,16.0,20.0,86,0.00,,,0.00,Wunderground v.1.15,2013-04-23 21:50:00,
2013-04-23 17:55:00,69.8,65.8,30.06,SE,130,17.0,20.0,87,0.00,,,0.00,Wunderground v.1.15,2013-04-23 21:55:00,
2013-04-23 18:05:00,69.7,65.7,30.06,SE,133,19.0,21.0,87,0.00,,,0.00,Wunderground v.1.15,2013-04-23 22:05:00,
2013-04-23 18:10:00,70.0,66.0,30.06,ESE,119,18.0,20.0,87,0.00,,,0.00,Wunderground v.1.15,2013-04-23 22:10:00,
2013-04-23 18:15:00,70.2,65.8,30.06,SE,131,18.0,20.0,86,0.00,,,0.00,Wunderground v.1.15,2013-04-23 22:15:00,
2013-04-23 18:20:00,70.1,65.7,30.06,SE,133,18.0,20.0,86,0.00,,,0.00,Wunderground v.1.15,2013-04-23 22:20:00,
2013-04-23 18:25:00,69.9,65.9,30.06,SE,138,19.0,20.0,87,0.00,,,0.00,Wunderground v.1.15,2013-04-23 22:25:00,
2013-04-23 18:35:00,69.8,66.1,30.05,SE,130,20.0,20.0,88,0.00,,,0.00,Wunderground v.1.15,2013-04-23 22:35:00,
2013-04-23 18:40:00,69.6,65.9,30.05,SE,126,20.0,20.0,88,0.00,,,0.00,Wunderground v.1.15,2013-04-23 22:40:00,
2013-04-23 18:50:00,69.6,65.9,30.05,SE,125,20.0,20.0,88,0.00,,,0.00,Wunderground v.1.15,2013-04-23 22:50:00,
2013-04-23 18:55:00,69.6,65.6,30.05,ESE,120,20.0,20.0,87,0.00,,,0.00,Wunderground v.1.15,2013-04-23 22:55:00,
2013-04-23 19:05:00,69.5,65.8,30.05,ESE,117,19.0,22.0,88,0.00,,,0.00,Wunderground v.1.15,2013-04-23 23:05:00,
2013-04-23 19:10:00,69.5,65.8,30.05,SE,126,20.0,20.0,88,0.00,,,0.00,Wunderground v.1.15,2013-04-23 23:10:00,
2013-04-23 19:15:00,69.4,65.7,30.05,ESE,117,21.0,21.0,88,0.00,,,0.00,Wunderground v.1.15,2013-04-23 23:15:00,
2013-04-23 19:25:00,69.4,65.7,30.05,ESE,118,19.0,20.0,88,0.00,,,0.00,Wunderground v.1.15,2013-04-23 23:25:00,
2013-04-23 19:30:00,69.2,65.2,30.05,SE,143,19.0,19.0,87,0.00,,,0.00,Wunderground v.1.15,2013-04-23 23:30:00,
2013-04-23 19:35:00,69.2,65.5,30.05,SE,125,19.0,20.0,88,0.00,,,0.00,Wunderground v.1.15,2013-04-23 23:35:00,
2013-04-23 19:40:00,69.2,65.5,30.05,SE,124,19.0,20.0,88,0.00,,,0.00,Wunderground v.1.15,2013-04-23 23:40:00,
2013-04-23 19:50:00,69.0,65.6,30.05,SE,132,20.0,20.0,89,0.00,,,0.00,Wunderground v.1.15,2013-04-23 23:50:00,
2013-04-23 20:00:00,68.9,65.5,30.05,SE,130,21.0,21.0,89,0.00,,,0.00,Wunderground v.1.15,2013-04-24 00:00:00,
2013-04-23 20:05:00,68.9,65.5,30.05,SE,128,20.0,21.0,89,0.00,,,0.00,Wunderground v.1.15,2013-04-24 00:05:00,
2013-04-23 20:10:00,68.9,65.2,30.05,SE,126,20.0,20.0,88,0.00,,,0.00,Wunderground v.1.15,2013-04-24 00:10:00,
2013-04-23 20:20:00,68.8,65.1,30.05,SE,127,21.0,21.0,88,0.00,,,0.00,Wunderground v.1.15,2013-04-24 00:20:00,
2013-04-23 20:25:00,68.8,65.4,30.06,SE,126,21.0,21.0,89,0.00,,,0.00,Wunderground v.1.15,2013-04-24 00:25:00,
2013-04-23 20:35:00,68.8,65.4,30.06,SE,128,21.0,22.0,89,0.00,,,0.00,Wunderground v.1.15,2013-04-24 00:35:00,
2013-04-23 20:40:00,68.7,65.3,30.05,ESE,121,21.0,21.0,89,0.00,,,0.00,Wunderground v.1.15,2013-04-24 00:40:00,
2013-04-23 20:50:00,68.8,65.7,30.06,SE,128,20.0,21.0,90,0.00,,,0.00,Wunderground v.1.15,2013-04-24 00:50:00,
2013-04-23 20:55:00,68.8,65.7,30.06,ESE,121,20.0,21.0,90,0.00,,,0.00,Wunderground v.1.15,2013-04-24 00:55:00,
2013-04-23 21:05:00,68.7,65.6,30.06,ESE,115,20.0,22.0,90,0.00,,,0.00,Wunderground v.1.15,2013-04-24 01:05:00,
2013-04-23 21:10:00,68.8,65.7,30.06,SE,135,21.0,21.0,90,0.00,,,0.00,Wunderground v.1.15,2013-04-24 01:10:00,
2013-04-23 21:20:00,68.8,65.7,30.07,ESE,122,19.0,21.0,90,0.00,,,0.00,Wunderground v.1.15,2013-04-24 01:20:00,
2013-04-23 21:25:00,68.8,66.1,30.07,SE,135,19.0,21.0,91,0.00,,,0.00,Wunderground v.1.15,2013-04-24 01:25:00,
2013-04-23 21:30:00,68.8,65.7,30.07,SE,134,20.0,24.0,90,0.00,,,0.00,Wunderground v.1.15,2013-04-24 01:30:00,
2013-04-23 21:35:00,68.8,65.7,30.07,SE,124,19.0,24.0,90,0.00,,,0.00,Wunderground v.1.15,2013-04-24 01:35:00,
2013-04-23 21:45:00,68.9,65.8,30.07,ESE,118,20.0,20.0,90,0.00,,,0.00,Wunderground v.1.15,2013-04-24 01:45:00,
2013-04-23 21:50:00,68.8,65.7,30.08,SE,124,17.0,20.0,90,0.00,,,0.00,Wunderground v.1.15,2013-04-24 01:50:00,
2013-04-23 21:55:00,68.9,66.2,30.08,SE,130,14.0,20.0,91,0.00,,,0.00,Wunderground v.1.15,2013-04-24 01:55:00,
2013-04-23 22:05:00,68.9,66.2,30.08,ESE,119,13.0,20.0,91,0.00,,,0.00,Wunderground v.1.15,2013-04-24 02:05:00,
2013-04-23 22:10:00,68.8,65.7,30.08,SE,129,15.0,20.0,90,0.00,,,0.00,Wunderground v.1.15,2013-04-24 02:10:00,
2013-04-23 22:20:00,68.9,65.8,30.08,ESE,114,18.0,18.0,90,0.00,,,0.00,Wunderground v.1.15,2013-04-24 02:20:00,
2013-04-23 22:25:00,68.8,66.1,30.08,SE,146,16.0,20.0,91,0.00,,,0.00,Wunderground v.1.15,2013-04-24 02:25:00,
2013-04-23 22:35:00,68.8,66.4,30.08,SSE,163,13.0,20.0,92,0.00,,,0.00,Wunderground v.1.15,2013-04-24 02:35:00,
2013-04-23 22:40:00,68.8,66.4,30.08,SE,129,14.0,14.0,92,0.00,,,0.00,Wunderground v.1.15,2013-04-24 02:40:00,
2013-04-23 22:50:00,68.8,66.4,30.09,SSE,147,16.0,20.0,92,0.00,,,0.00,Wunderground v.1.15,2013-04-24 02:50:00,
2013-04-23 23:00:00,68.8,66.4,30.08,South,191,14.0,14.0,92,0.00,,,0.00,Wunderground v.1.15,2013-04-24 03:00:00,
2013-04-23 23:05:00,68.7,66.3,30.08,SE,128,14.0,20.0,92,0.00,,,0.00,Wunderground v.1.15,2013-04-24 03:05:00,
2013-04-23 23:10:00,68.7,66.3,30.08,SE,132,13.0,13.0,92,0.00,,,0.00,Wunderground v.1.15,2013-04-24 03:10:00,
2013-04-23 23:20:00,68.8,66.4,30.08,SSE,161,14.0,14.0,92,0.00,,,0.00,Wunderground v.1.15,2013-04-24 03:20:00,
2013-04-23 23:30:00,68.7,66.3,30.08,SE,136,14.0,20.0,92,0.00,,,0.00,Wunderground v.1.15,2013-04-24 03:30:00,
2013-04-23 23:35:00,68.7,66.3,30.08,SSE,163,14.0,20.0,92,0.00,,,0.00,Wunderground v.1.15,2013-04-24 03:35:00,
2013-04-23 23:45:00,68.8,66.7,30.08,SE,138,11.0,20.0,93,0.00,,,0.00,Wunderground v.1.15,2013-04-24 03:45:00,
2013-04-23 23:50:00,68.6,66.2,30.08,SSE,150,11.0,20.0,92,0.00,,,0.00,Wunderground v.1.15,2013-04-24 03:50:00,
2013-04-23 23:55:00,68.6,66.2,30.07,SSE,158,13.0,20.0,92,0.00,,,0.00,Wunderground v.1.15,2013-04-24 03:55:00,